Weather Roundup
Issued by NWS Springfield, MO

Home | Current Version | Previous Version | Text Only | Print | Product List | Glossary On
Versions: 1 2 3 4 5 6 7 8 9 10 11 12 13 14 15 16 17 18 19 20 21 22 23 24 25 26 27 28 29 30 31 32 33 34 35 36 37 38 39 40 41 42 43 44 45 46 47 48 49 50
000
NZUS99 KSGF 081807
HRRSGF

HOURLY WEATHER
NATIONAL WEATHER SERVICE SPRINGFIELD MO
1200 PM CST MON FEB 08 2016

......SGF CWA......

CITY           SKY/WX    TMP DP  RH WIND       PRES   REMARKS
SPRINGFIELD    CLOUDY    34  16  47 NW21G31   30.01R WCI  22
6HR MIN TEMP:  34; 6HR MAX TEMP:  36; 6HR PCP: TRACE;

JOPLIN         LGT SNOW  34  26  72 NW17G24   30.12R WCI  23
6HR MIN TEMP:  33; 6HR MAX TEMP:  39; 6HR PCP: TRACE;

WEST PLAINS    CLOUDY    36  16  44 NW20G30   29.92S WCI  25
6HR MIN TEMP:  34; 6HR MAX TEMP:  38;

ROLLA          CLOUDY    28  17  63 NW21G36   29.90F WCI  15
6HR MIN TEMP:  26; 6HR MAX TEMP:  29;

OSAGE BEACH    CLOUDY    30  12  47 W21G35    29.98S WCI  17
BRANSON        FLURRIES  34  21  60 NW25G37   30.01S WCI  21

......SURROUNDING SGF CWA......

CITY           SKY/WX    TMP DP  RH WIND       PRES   REMARKS
CHANUTE        CLOUDY    36  21  54 NW23G33   30.15R WCI  24
PARSONS        PTSUNNY   41  17  38 NW22G35   30.16
COFFEYVILLE    MOSUNNY   43  16  33 N29G39    30.16F
EMPORIA        PTSUNNY   37  17  44 NW30G43   30.15S WCI  24
GROVE OK       CLOUDY    41  19  42 NW18G32   30.13F
ROGERS AR      CLOUDY    37  19  48 NW24G32   30.06S WCI  26
SILOAM SPRINGS CLOUDY    39  16  38 NW25G40   30.10F WCI  28
HARRISON AR    CLOUDY    36  23  59 NW22G35   30.01R WCI  25
NEAR YELLVILLE CLOUDY   N/A N/A N/A W23G33    29.97S

......KANSAS AND MISSOURI......

CITY           SKY/WX    TMP DP  RH WIND       PRES   REMARKS
KANSAS CTY INT FLURRIES  31  20  63 NW23G39   30.05F WCI  18
DOWNTOWN KC    FLURRIES  32  21  64 NW22G32   30.07S WCI  19
COLUMBIA       CLOUDY    27  13  55 NW24G31   29.95R WCI  12
SEDALIA        CLOUDY    30  16  56 NW26G45   30.01S WCI  16
ST JOSEPH      CLOUDY    31  18  58 N25G40    30.08F WCI  17
ST LOUIS       FLURRIES  30  14  51 NW23G30   29.88S WCI  17
SPIRIT OF STL  FLURRIES  27  16  63 W23G31    29.90S WCI  12
KIRKSVILLE     FLURRIES  21  10  62 NW22G30   29.95R WCI   5
WICHITA        MOSUNNY   42  12  29 NW36G46   30.25S
TOPEKA         CLOUDY    34  16  47 NW23G36   30.14S WCI  22
OLATHE         CLOUDY    31  15  52 NW18G35   30.07S WCI  19

......TENNESSEE......

CITY           SKY/WX    TMP DP  RH WIND       PRES   REMARKS
MEMPHIS        CLOUDY    45  22  40 NW14G26   29.95F
NASHVILLE      CLOUDY    42  23  46 W8        29.81F

......ARKANSAS.......

CITY           SKY/WX    TMP DP  RH WIND       PRES   REMARKS
FAYETTEVILLE   CLOUDY    38  18  44 NW16G28   30.08F WCI  29
FT SMITH       CLOUDY    46  14  27 W21G32    30.13F
LITTLE ROCK    PTSUNNY   47  15  27 NW28G40   30.04F

......OKLAHOMA.......

CITY           SKY/WX    TMP DP  RH WIND       PRES   REMARKS
TULSA          MOSUNNY   46  18  32 NW25G37   30.19F
PONCA CITY     SUNNY     45  15  30 NW30G46   30.25F
MCALESTER      LGT RAIN  48  14  25 NW20G38   30.22F
OKLAHOMA CITY  SUNNY     46   9  22 NW41G52   30.29F

......IOWA............

CITY           SKY/WX    TMP DP  RH WIND       PRES   REMARKS
DES MOINES     BLWGSNOW  18   8  65 NW35G45   29.97F VSB 1   WCI  -3
QUAD CITIES    LGT SNOW  21  13  71 NW20G28   29.80S WCI   6

......ILLINOIS........

CITY           SKY/WX    TMP DP  RH WIND       PRES   REMARKS
QUINCY         LGT SNOW  19  12  74 NW22      29.89S WCI   2
CHICAGO        FLURRIES  28  22  78 NW12      29.66S WCI  18



USA.gov is the U.S. government's official web portal to all federal, state and local government web resources and services.